Bakersfield, CA

5:19 AM PDT on April 29, 2017 (GMT -0700)
Meadows

Weather History for KBFL - July, 2013

Change the Weather History Date:

Saturday, July 27, 2013

  Actual Average Record
Temperature  
Mean Temperature 90 °F 85 °F  
Max Temperature 102 °F 98 °F 117 °F (1931)
Min Temperature 77 °F 71 °F 52 °F (1914)
Degree Days  
Heating Degree Days 0    
Month to date heating degree days 0  
Since 1 June heating degree days 0  
Since 1 July heating degree days 0  
Cooling Degree Days 25    
Month to date cooling degree days 624  
Year to date cooling degree days 1473  
Since 1 June cooling degree days 1094  
Growing Degree Days 40 (Base 50)    
Moisture  
Dew Point 53 °F    
Average Humidity 34    
Maximum Humidity 52    
Minimum Humidity 16    
Precipitation  
Precipitation 0.00 in 0.00 in 0.00 in (2017)
Month to date precipitation T 0.00  
Year to date precipitation 2.36 4.39  
Since 1 July precipitation T  
Snow  
Snow 0.00 in - - ()
Month to date snowfall 0.0  
Since 1 June snowfall 0.0  
Since 1 July snowfall 0.0  
Snow Depth 0.00 in    
Sea Level Pressure  
Sea Level Pressure 29.85 in    
Wind  
Wind Speed 7 mph (NW)    
Max Wind Speed 16 mph    
Max Gust Speed 22 mph    
Visibility 10 miles    
Events      
T = Trace of Precipitation, MM = Missing Value Source: NWS Daily Summary

Daily Weather History Graph

Daily Weather History Graph

Search for Another Location

Airport or City:

Trip Planner

Search our weather history database for the weather conditions in past years. The results will help you decide how hot, cold, wet, or windy it might be!

Date:

Astronomy

Jul. 27, 2013 Rise Set
Actual Time 6:01 AM PDT 8:03 PM PDT
Civil Twilight 5:32 AM PDT 8:32 PM PDT
Nautical Twilight 4:58 AM PDT 9:06 PM PDT
Astronomical Twilight 4:21 AM PDT 9:43 PM PDT
Moon 11:09 PM PDT (7/27) 11:32 AM PDT (7/27)
Length of Visible Light 14h 59m
Length of Day
14h 02m
Waning Gibbous, 70% of the Moon is Illuminated
Jul 27
Waning Gibbous
Jul 29
Last Quarter
Aug 6
New
Aug 14
First Quarter
Aug 20
Full

Hourly Weather History & Observations

Time (PDT) Temp. Heat Index Dew Point Humidity Pressure Visibility Wind Dir Wind Speed Gust Speed Precip Events Conditions
12:54 AM 86.0 °F 85.4 °F 59.0 °F 40% 29.92 in 10.0 mi NNE 3.5 mph - N/A   Clear
1:54 AM 88.0 °F 86.7 °F 57.0 °F 35% 29.91 in 10.0 mi Calm Calm - N/A   Clear
2:54 AM 82.0 °F 82.1 °F 59.0 °F 45% 29.91 in 9.0 mi WNW 4.6 mph - N/A   Clear
3:54 AM 82.0 °F 82.1 °F 59.0 °F 45% 29.92 in 10.0 mi WNW 3.5 mph - N/A   Clear
4:54 AM 79.0 °F - 59.0 °F 50% 29.92 in 10.0 mi West 6.9 mph - N/A   Clear
5:54 AM 79.0 °F - 57.9 °F 48% 29.93 in 10.0 mi Calm Calm - N/A   Partly Cloudy
6:54 AM 79.0 °F - 59.0 °F 50% 29.93 in 10.0 mi Calm Calm - N/A   Partly Cloudy
7:54 AM 81.0 °F 81.0 °F 57.0 °F 44% 29.94 in 6.0 mi East 4.6 mph - N/A   Haze
8:54 AM 84.0 °F 83.3 °F 57.0 °F 40% 29.93 in 10.0 mi Calm Calm - N/A   Clear
9:54 AM 87.1 °F 84.9 °F 53.1 °F 31% 29.92 in 10.0 mi SSW 3.5 mph - N/A   Clear
10:54 AM 91.0 °F 88.5 °F 53.1 °F 27% 29.90 in 10.0 mi WNW 6.9 mph - N/A   Clear
11:54 AM 93.9 °F - 51.1 °F 23% 29.88 in 10.0 mi NW 11.5 mph - N/A   Clear
12:54 PM 96.1 °F - 48.9 °F 20% 29.86 in 10.0 mi WNW 10.4 mph - N/A   Clear
1:54 PM 98.1 °F - 46.9 °F 18% 29.83 in 10.0 mi NW 10.4 mph - N/A   Clear
2:54 PM 99.0 °F - 51.1 °F 20% 29.80 in 10.0 mi WNW 12.7 mph - N/A   Clear
3:54 PM 100.9 °F - 48.0 °F 17% 29.78 in 10.0 mi NNW 12.7 mph - N/A   Clear
4:54 PM 100.9 °F - 46.9 °F 16% 29.76 in 10.0 mi NW 13.8 mph - N/A   Partly Cloudy
5:54 PM 100.9 °F - 46.0 °F 15% 29.74 in 10.0 mi NNW 13.8 mph - N/A   Partly Cloudy
6:54 PM 99.0 °F - 46.9 °F 17% 29.74 in 10.0 mi NNW 12.7 mph - N/A   Clear
7:54 PM 96.1 °F - 48.0 °F 19% 29.74 in 10.0 mi NNW 8.1 mph - N/A   Clear
8:54 PM 91.9 °F - 48.9 °F 23% 29.75 in 10.0 mi North 4.6 mph - N/A   Clear
9:54 PM 87.1 °F - 50.0 °F 28% 29.78 in 10.0 mi NW 5.8 mph - N/A   Clear
10:54 PM 87.1 °F 85.7 °F 55.9 °F 35% 29.78 in 10.0 mi North 6.9 mph - N/A   Clear
11:54 PM 86.0 °F 84.2 °F 54.0 °F 33% 29.78 in 10.0 mi North 9.2 mph - N/A   Clear